Погода в Сочи

Погода в Сочи : погода сейчас, прогноз погоды и архив. Всё, что Вы хотите узнать о погоде в Сочи!

Поиск расширенной информации на нашем сайте:

Другие новости

Новости СМИ2

Главная страница сайта

Новости сайта

02.10.2013

Напоминаем, что на нашем новом сайте вы можете получить высокодетализированные прогнозы погоды по пунктам России, СНГ и мира (включающие важные для авиации метеовеличины, такие как направление и скорость ветра, видимость, явления погоды, количество и форма облачности, нижняя и верхняя граница облачности), а также ознакомиться с разнообразными материалами по авиационной метеорологии и подборкой полезных ссылок на эту тему.

Сайт Метеоцентр.Азия посвящён разработке технологий оптимизации авиаметеорологического обслуживания, включая проектирование и перспективное создание нескольких автоматизированных авиаметеорологических систем:
- система выпуска высокодетальных прогностических карт явлений погоды для нижнего воздушного пространства по России и ближнему зарубежью;
- система верификации прогнозов TAF (выпускаемых синоптиками официальных АМСГ РФ и ближнего зарубежья) и AUTOTAF (выпускаемых сайтом Метеоцентр.Азия) - выявление ошибок, онлайн-сопоставление с фактической погодой METAR, автоматическое внесение коррективов в прогнозы при резком отклонении фактической погоды от прогноза, подсчёт оправдываемости прогнозов по элементам и в целом;
- система обработки, анализа и отображения авиаметеорологической информации для применения провайдерами метеорологической информации.


Погода в Сочи - сегодня

Время (UTC), дата Ветер
(°,м/с) 
Видим.   Явления Облачность Т
(°С)
Тd
(°С)
f(%) Тe
(°С)
Pmin
(гПа)
dP
(гПа)
Po
(мм)
O2
(г/м3)
Тmin Tmax R s Состояние
почвы
18 19.06.17 260 (З) 4000 м  {ливн. осадки}  10/0 средняя 
[Ac und]
+19.6 +16.8 84 +33  1007.9  0.5  755  280           
21 19.06.17 070 (В) 4000 м  слаб. ливневой дождь  10/10 900 м кучево-дожд. 
[Cb cap]
+18 +17.4 96 +32  1008.4  0.5  755  281           
00 20.06.17 070 (В) 4000 м  в посл. час ливневой дождь  10/9 1020 м кучево-дожд., средняя 
[Cb cap|Ac und]
+17.6 +16.9 96 +30  1007  -1.4  754  282           
03 20.06.17 030 (СВ) 10 км    10/10 870 м кучево-дожд. 
[Cb cap]
+18 +17 94 +31  1006.3  -0.6  753  281  +17.5       
06 20.06.17 210 (ЮЗ) 10 км  ливневой дождь  10/10 150 м кучево-дожд. 
[Cb cap]
+17.6 +16.8 95 +30  1007.6  1.2  754  282           
09 20.06.17 090 (В) 10 км  слаб. ливневой дождь  10/10 960 м кучево-дожд. 
[Cb cap]
+18.6 +17.3 92 +33  1008.8  1.2  755  281           
12 20.06.17 230 (ЮЗ) 10 км  {ливн. осадки}  9/5 600 м средняя 
[Cu Sc|Ac trans]
+20.6 +16.6 78 +32  1008.9  0.1  755  279           
15 20.06.17 240 (ЮЗ) 10 км    9/3 600 м средняя, верхняя 
[Sc diur, vesp|Ac trans|Ci fib]
+20.8 +16.7 77 +32  1009.1  0.2  755  279    +23.2  11     
18 20.06.17 тихо ()   4000 м    10/3 600 м средняя 
[Sc diur, vesp|Ac und]
+19.9 +17.3 85 +33  1010.1  756  280           
21 20.06.17 060 (СВ) 4000 м    9/6 930 м средняя 
[Sc|Ac trans]
+18.6 +16.9 90 +31  1010.2  0.1  756  282           
00 21.06.17 070 (В) 4000 м    4/0 верхняя 
[Ci fib]
+16.7 +15.9 95 +28  1010.1  -0.1  756  284           
03 21.06.17 040 (СВ) 20000 м    6/0 средняя, верхняя 
[Ac trans|Ci fib]
+17 +15.7 92 +27  1010.3  0.2  756  284  +16         
06 21.06.17 110 (В) 20000 м    5/1 1000 м средняя 
[Cu med, cong|Ac trans]
+20.8 +16.2 75 +31  1010.3  756  280           
09 21.06.17 240 (ЮЗ) 10 км    4/3 600 м средняя 
[Cu med, cong|Ac trans]
+22.2 +15.3 65 +31  1010.6  0.4  757  279           
12 21.06.17 220 (ЮЗ) 10 км    8/3 600 м кучево-дожд., средняя 
[Cb cap|Ac trans]
+22.8 +16.9 69 +35  1010.8  0.2  757  278           
15 21.06.17 290 (З) 10 км    8/3 600 м кучево-дожд., средняя 
[Cb cap|Ac trans]
+22.4 +16.9 71 +34  1010.4  -0.4  757  278    +24.2       
18 21.06.17 тихо ()   4000 м    6/1 1000 м средняя 
[Sc|Ac trans]
+21 +17.4 80 +34  1011.2  0.7  757  279           
21 21.06.17 тихо ()   4000 м    9/9 1440 м 
[Sc]
+19.6 +17.7 89 +33  1011.5  0.3  757  281           
00 22.06.17 060 (СВ) 4000 м    9/9 1500 м 
[Sc]
+19.4 +17.4 88 +33  1011.5  757  281           
03 22.06.17 070 (В) 20000 м    3/3 1500 м 
[Sc]
+18.6 +16.4 87 +30  1011.8  0.3  758  282  +17.7         
06 22.06.17 190 (Ю) 20000 м    3/3 600 м 
[Cu hum]
+22.8 +17.4 72 +36  1012.3  0.6  758  278           
09 22.06.17 220 (ЮЗ) 10 км    4/4 1500 м 
[Sc]
+23 +17.9 73 +37  1013.3  759  278           
12 22.06.17 240 (ЮЗ) 10 км    8/8 1500 м кучево-дожд. 
[Cb cap]
+23.2 +18.1 73 +37  1013.2  -0.1  759  278           
15 22.06.17 270 (З) 10 км    5/3 600 м верхняя 
[St|Ci fib]
+22.8 +17.5 72 +36  1013.2  759  278    +24.8       
18 22.06.17 090 (В) 4000 м    8/0 средняя, верхняя 
[Ac trans|Ci fib]
+21.4 +17.4 78 +34  1014.3  1.1  759  280           
Время (UTC), дата Ветер
(°,м/с) 
Видим.   Явления Облачность Т
(°С)
Тd
(°С)
f(%) Тe
(°С)
Pmin
(гПа)
dP
(гПа)
Po
(мм)
O2
(г/м3)
Тmin Tmax R s Состояние
почвы

Для получения пояснительной информации подведите курсор к названию столбца.

ПОГОДА в Сочи - архив

Всё, что Вы хотите узнать о погоде в Сочи - удобно и подробно!

Выберите нужную дату (начиная с 1 января 2015* года) и нажмите кнопку "Найти".
Будут отображены архивные сводки погоды по пункту Сочи, начиная с указанной даты.


Отображать данные в формате CSV (для использования в таблицах Excel)


Внимание! Наш архив погоды предназначен исключительно для личного некоммерческого использования в познавательных целях. Если Вам необходимы официальные справки о состоянии погоды (для производственных, юридических, коммерческих и т.п. целей), обращайтесь в органы Росгидромета.

*Примечание: данная дата относится к архиву по метеостанциям СССР (Россия, СНГ, Балтия).
Архив по метеостанциям Зарубежной Европы и Азии (кроме Китая) хранится 10 дней, по другим регионам земного шара (Китай, Африка, Америка, Австралия, Океания) - 1 день.

Сочи - район местоположения метеостанции


Название, широта, долгота, высота метеостанции:
Сочи (Адлер) 43.4°ш. 39.9°д. 13 м над ур. моря [Российская Федерация]

Дополнительная информация

В oтличие oт бoльшинства пoгoдных сайтoв мы публикуем пoдрoбную метеoинфoрмацию в детальнoм прoфессиoнальнoм фoрмате.

Характеристики температуры и влажнoсти вoздуха измеряются на высoте 2 м в тени вдали oт зданий и деревьев.
Скoрoсть ветра измеряется на высoте 10 м (на урoвне рoста челoвека скoрoсть ветра ниже в 1.5-2 раза). Если метеoстанция нахoдится в гoрoде или в лесу, тo скoрoсть ветра занижена на 2-4 м/с пo сравнению с oткрытым местoм. Скoрoсть ветра над акватoриями крупных рек и oзёр, а также на вершинах хoлмoв на 2-5 м/с выше, чем в oбычных услoвиях.
Атмoсфернoе давление в разных тoчках местнoсти мoжет значительнo oтличаться oт давления на метеoстанции, в зависимoсти oт услoвий рельефа (при пoдъёме на 10 м давление пoнижается примернo на 1 мм рт.ст.).